owner,sensor,date,latitude,longitude,vertical_datum,sea_water_practical_salinity,qcFlag 
ENP,ioos.station.NOAA.NDBC:LBSF1:1,2015-01-01T00:00:00Z,25.2140,-80.4320,1.5,31.74,1111122 
ENP,ioos.station.NOAA.NDBC:LBSF1:1,2015-01-01T01:00:00Z,25.2140,-80.4320,1.5,31.75,1111122 
ENP,ioos.station.NOAA.NDBC:LBSF1:1,2015-01-01T02:00:00Z,25.2140,-80.4320,1.5,31.78,1111122 
ENP,ioos.station.NOAA.NDBC:LBSF1:1,2015-01-01T03:00:00Z,25.2140,-80.4320,1.5,31.79,1111122 
ENP,ioos.station.NOAA.NDBC:LBSF1:1,2015-01-01T04:00:00Z,25.2140,-80.4320,1.5,31.81,1111122 
ENP,ioos.station.NOAA.NDBC:LBSF1:1,2015-01-05T09:00:00Z,25.2140,-80.4320,1.5,31.39,1111122 
ENP,ioos.station.NOAA.NDBC:LBSF1:1,2015-01-05T10:00:00Z,25.2140,-80.4320,1.5,31.39,1111122 
ENP,ioos.station.NOAA.NDBC:LBSF1:1,2015-01-05T11:00:00Z,25.2140,-80.4320,1.5,31.39,1111122 
ENP,ioos.station.NOAA.NDBC:LBSF1:1,2015-01-05T12:00:00Z,25.2140,-80.4320,1.5,31.39,1111122 
ENP,ioos.station.NOAA.NDBC:LBSF1:1,2015-01-05T13:00:00Z,25.2140,-80.4320,1.5,31.39,1111122 
ENP,ioos.station.NOAA.NDBC:LBSF1:1,2015-01-05T15:00:00Z,25.2140,-80.4320,1.5,31.39,1111122 
ENP,ioos.station.NOAA.NDBC:LBSF1:1,2015-01-05T16:00:00Z,25.2140,-80.4320,1.5,31.4,1111122 
ENP,ioos.station.NOAA.NDBC:LBSF1:1,2015-01-05T17:00:00Z,25.2140,-80.4320,1.5,31.41,1111122 
ENP,ioos.station.NOAA.NDBC:LBSF1:1,2015-01-05T18:00:00Z,25.2140,-80.4320,1.5,31.42,1111122 
ENP,ioos.station.NOAA.NDBC:LBSF1:1,2015-01-05T19:00:00Z,25.2140,-80.4320,1.5,31.42,1111122 
ENP,ioos.station.NOAA.NDBC:LBSF1:1,2015-01-05T20:00:00Z,25.2140,-80.4320,1.5,31.44,1111122 
ENP,ioos.station.NOAA.NDBC:LBSF1:1,2015-01-05T21:00:00Z,25.2140,-80.4320,1.5,31.45,1111122 
ENP,ioos.station.NOAA.NDBC:LBSF1:1,2015-01-05T22:00:00Z,25.2140,-80.4320,1.5,31.45,1111122 
ENP,ioos.station.NOAA.NDBC:LBSF1:1,2015-01-05T23:00:00Z,25.2140,-80.4320,1.5,31.45,1111122 
ENP,ioos.station.NOAA.NDBC:LBSF1:1,2015-01-06T00:00:00Z,25.2140,-80.4320,1.5,31.47,1111122 
ENP,ioos.station.NOAA.NDBC:LBSF1:1,2015-01-06T01:00:00Z,25.2140,-80.4320,1.5,31.46,1111122 
ENP,ioos.station.NOAA.NDBC:LBSF1:1,2015-01-06T02:00:00Z,25.2140,-80.4320,1.5,31.49,1111122 
ENP,ioos.station.NOAA.NDBC:LBSF1:1,2015-01-06T03:00:00Z,25.2140,-80.4320,1.5,31.5,1111122 
ENP,ioos.station.NOAA.NDBC:LBSF1:1,2015-01-06T04:00:00Z,25.2140,-80.4320,1.5,31.51,1111122 
ENP,ioos.station.NOAA.NDBC:LBSF1:1,2015-01-06T05:00:00Z,25.2140,-80.4320,1.5,31.53,1111122 
ENP,ioos.station.NOAA.NDBC:LBSF1:1,2015-01-06T06:00:00Z,25.2140,-80.4320,1.5,31.53,1111122 
ENP,ioos.station.NOAA.NDBC:LBSF1:1,2015-01-06T07:00:00Z,25.2140,-80.4320,1.5,31.54,1111122 
ENP,ioos.station.NOAA.NDBC:LBSF1:1,2015-01-06T08:00:00Z,25.2140,-80.4320,1.5,31.54,1111122 
ENP,ioos.station.NOAA.NDBC:LBSF1:1,2015-01-06T09:00:00Z,25.2140,-80.4320,1.5,31.54,1111122 
ENP,ioos.station.NOAA.NDBC:LBSF1:1,2015-01-06T10:00:00Z,25.2140,-80.4320,1.5,31.55,1111122 
ENP,ioos.station.NOAA.NDBC:LBSF1:1,2015-01-06T11:00:00Z,25.2140,-80.4320,1.5,31.57,1111122 
ENP,ioos.station.NOAA.NDBC:LBSF1:1,2015-01-06T12:00:00Z,25.2140,-80.4320,1.5,31.55,1111122 
ENP,ioos.station.NOAA.NDBC:LBSF1:1,2015-01-06T13:00:00Z,25.2140,-80.4320,1.5,31.56,1111122 
ENP,ioos.station.NOAA.NDBC:LBSF1:1,2015-01-06T14:00:00Z,25.2140,-80.4320,1.5,31.57,1111122 
ENP,ioos.station.NOAA.NDBC:LBSF1:1,2015-01-06T15:00:00Z,25.2140,-80.4320,1.5,31.58,1111122 
ENP,ioos.station.NOAA.NDBC:LBSF1:1,2015-01-06T16:00:00Z,25.2140,-80.4320,1.5,31.6,1111122 
ENP,ioos.station.NOAA.NDBC:LBSF1:1,2015-01-06T17:00:00Z,25.2140,-80.4320,1.5,31.61,1111122 
ENP,ioos.station.NOAA.NDBC:LBSF1:1,2015-01-06T18:00:00Z,25.2140,-80.4320,1.5,31.63,1111122 
ENP,ioos.station.NOAA.NDBC:LBSF1:1,2015-01-06T19:00:00Z,25.2140,-80.4320,1.5,31.63,1111122 
ENP,ioos.station.NOAA.NDBC:LBSF1:1,2015-01-06T20:00:00Z,25.2140,-80.4320,1.5,31.64,1111122 
ENP,ioos.station.NOAA.NDBC:LBSF1:1,2015-01-06T21:00:00Z,25.2140,-80.4320,1.5,31.64,1111122 
ENP,ioos.station.NOAA.NDBC:LBSF1:1,2015-01-06T22:00:00Z,25.2140,-80.4320,1.5,31.65,1111122 
ENP,ioos.station.NOAA.NDBC:LBSF1:1,2015-01-06T23:00:00Z,25.2140,-80.4320,1.5,31.66,1111122 
ENP,ioos.station.NOAA.NDBC:LBSF1:1,2015-01-07T00:00:00Z,25.2140,-80.4320,1.5,31.65,1111122 
ENP,ioos.station.NOAA.NDBC:LBSF1:1,2015-01-07T01:00:00Z,25.2140,-80.4320,1.5,31.66,1111122 
ENP,ioos.station.NOAA.NDBC:LBSF1:1,2015-01-07T02:00:00Z,25.2140,-80.4320,1.5,31.65,1111122 
ENP,ioos.station.NOAA.NDBC:LBSF1:1,2015-01-07T03:00:00Z,25.2140,-80.4320,1.5,31.66,1111122 
ENP,ioos.station.NOAA.NDBC:LBSF1:1,2015-01-07T04:00:00Z,25.2140,-80.4320,1.5,31.61,1111122 
ENP,ioos.station.NOAA.NDBC:LBSF1:1,2015-01-07T05:00:00Z,25.2140,-80.4320,1.5,31.63,1111122 
ENP,ioos.station.NOAA.NDBC:LBSF1:1,2015-01-07T06:00:00Z,25.2140,-80.4320,1.5,31.63,1111122 
ENP,ioos.station.NOAA.NDBC:LBSF1:1,2015-01-07T07:00:00Z,25.2140,-80.4320,1.5,31.62,1111122 
ENP,ioos.station.NOAA.NDBC:LBSF1:1,2015-01-07T08:00:00Z,25.2140,-80.4320,1.5,31.63,1111122 
ENP,ioos.station.NOAA.NDBC:LBSF1:1,2015-01-07T09:00:00Z,25.2140,-80.4320,1.5,31.63,1111122 
ENP,ioos.station.NOAA.NDBC:LBSF1:1,2015-01-07T10:00:00Z,25.2140,-80.4320,1.5,31.63,1111122 
ENP,ioos.station.NOAA.NDBC:LBSF1:1,2015-01-07T11:00:00Z,25.2140,-80.4320,1.5,31.63,1111122 
ENP,ioos.station.NOAA.NDBC:LBSF1:1,2015-01-07T12:00:00Z,25.2140,-80.4320,1.5,31.65,1111122 
ENP,ioos.station.NOAA.NDBC:LBSF1:1,2015-01-07T13:00:00Z,25.2140,-80.4320,1.5,31.63,1111122 
ENP,ioos.station.NOAA.NDBC:LBSF1:1,2015-01-07T14:00:00Z,25.2140,-80.4320,1.5,31.65,1111122 
ENP,ioos.station.NOAA.NDBC:LBSF1:1,2015-01-07T15:00:00Z,25.2140,-80.4320,1.5,31.66,1111122 
ENP,ioos.station.NOAA.NDBC:LBSF1:1,2015-01-07T16:00:00Z,25.2140,-80.4320,1.5,31.65,1111122 
ENP,ioos.station.NOAA.NDBC:LBSF1:1,2015-01-07T17:00:00Z,25.2140,-80.4320,1.5,31.69,1111122 
ENP,ioos.station.NOAA.NDBC:LBSF1:1,2015-01-07T18:00:00Z,25.2140,-80.4320,1.5,31.71,1111122 
ENP,ioos.station.NOAA.NDBC:LBSF1:1,2015-01-07T19:00:00Z,25.2140,-80.4320,1.5,31.74,1111122 
ENP,ioos.station.NOAA.NDBC:LBSF1:1,2015-01-07T20:00:00Z,25.2140,-80.4320,1.5,31.77,1111122 
ENP,ioos.station.NOAA.NDBC:LBSF1:1,2015-01-07T21:00:00Z,25.2140,-80.4320,1.5,31.74,1111122 
ENP,ioos.station.NOAA.NDBC:LBSF1:1,2015-01-07T22:00:00Z,25.2140,-80.4320,1.5,31.47,1111122 
ENP,ioos.station.NOAA.NDBC:LBSF1:1,2015-01-07T23:00:00Z,25.2140,-80.4320,1.5,31.37,1111122 
ENP,ioos.station.NOAA.NDBC:LBSF1:1,2015-01-08T00:00:00Z,25.2140,-80.4320,1.5,31.34,1111122 
ENP,ioos.station.NOAA.NDBC:LBSF1:1,2015-01-08T01:00:00Z,25.2140,-80.4320,1.5,31.21,1111122 
ENP,ioos.station.NOAA.NDBC:LBSF1:1,2015-01-08T02:00:00Z,25.2140,-80.4320,1.5,31.05,1111122 
ENP,ioos.station.NOAA.NDBC:LBSF1:1,2015-01-08T03:00:00Z,25.2140,-80.4320,1.5,31.02,1111122 
ENP,ioos.station.NOAA.NDBC:LBSF1:1,2015-01-08T05:00:00Z,25.2140,-80.4320,1.5,31.02,1111122 
ENP,ioos.station.NOAA.NDBC:LBSF1:1,2015-01-08T06:00:00Z,25.2140,-80.4320,1.5,31.21,1111122 
ENP,ioos.station.NOAA.NDBC:LBSF1:1,2015-01-08T07:00:00Z,25.2140,-80.4320,1.5,31.34,1111122 
ENP,ioos.station.NOAA.NDBC:LBSF1:1,2015-01-08T08:00:00Z,25.2140,-80.4320,1.5,31.39,1111122 
ENP,ioos.station.NOAA.NDBC:LBSF1:1,2015-01-08T09:00:00Z,25.2140,-80.4320,1.5,31.38,1111122 
ENP,ioos.station.NOAA.NDBC:LBSF1:1,2015-01-08T10:00:00Z,25.2140,-80.4320,1.5,31.25,1111122 
ENP,ioos.station.NOAA.NDBC:LBSF1:1,2015-01-08T11:00:00Z,25.2140,-80.4320,1.5,31.23,1111122 
ENP,ioos.station.NOAA.NDBC:LBSF1:1,2015-01-08T12:00:00Z,25.2140,-80.4320,1.5,31.31,1111122 
ENP,ioos.station.NOAA.NDBC:LBSF1:1,2015-01-08T13:00:00Z,25.2140,-80.4320,1.5,31.26,1111122 
ENP,ioos.station.NOAA.NDBC:LBSF1:1,2015-01-08T14:00:00Z,25.2140,-80.4320,1.5,31.31,1111122 
ENP,ioos.station.NOAA.NDBC:LBSF1:1,2015-01-08T15:00:00Z,25.2140,-80.4320,1.5,31.38,1111122 
ENP,ioos.station.NOAA.NDBC:LBSF1:1,2015-01-08T16:00:00Z,25.2140,-80.4320,1.5,31.37,1111122 
ENP,ioos.station.NOAA.NDBC:LBSF1:1,2015-01-08T17:00:00Z,25.2140,-80.4320,1.5,31.35,1111122 
ENP,ioos.station.NOAA.NDBC:LBSF1:1,2015-01-08T18:00:00Z,25.2140,-80.4320,1.5,31.35,1111122 
ENP,ioos.station.NOAA.NDBC:LBSF1:1,2015-01-08T19:00:00Z,25.2140,-80.4320,1.5,31.34,1111122 
ENP,ioos.station.NOAA.NDBC:LBSF1:1,2015-01-08T20:00:00Z,25.2140,-80.4320,1.5,31.31,1111122 
ENP,ioos.station.NOAA.NDBC:LBSF1:1,2015-01-08T21:00:00Z,25.2140,-80.4320,1.5,31.09,1111122 
ENP,ioos.station.NOAA.NDBC:LBSF1:1,2015-01-08T22:00:00Z,25.2140,-80.4320,1.5,31.1,1111122 
ENP,ioos.station.NOAA.NDBC:LBSF1:1,2015-01-08T23:00:00Z,25.2140,-80.4320,1.5,30.98,1111122 
ENP,ioos.station.NOAA.NDBC:LBSF1:1,2015-01-09T00:00:00Z,25.2140,-80.4320,1.5,30.97,1111122 
ENP,ioos.station.NOAA.NDBC:LBSF1:1,2015-01-09T01:00:00Z,25.2140,-80.4320,1.5,30.97,1111122 
ENP,ioos.station.NOAA.NDBC:LBSF1:1,2015-01-09T02:00:00Z,25.2140,-80.4320,1.5,30.96,1111122 
ENP,ioos.station.NOAA.NDBC:LBSF1:1,2015-01-09T04:00:00Z,25.2140,-80.4320,1.5,30.94,1111122 
ENP,ioos.station.NOAA.NDBC:LBSF1:1,2015-01-09T05:00:00Z,25.2140,-80.4320,1.5,30.93,1111122 
ENP,ioos.station.NOAA.NDBC:LBSF1:1,2015-01-09T06:00:00Z,25.2140,-80.4320,1.5,30.93,1111122 
ENP,ioos.station.NOAA.NDBC:LBSF1:1,2015-01-09T07:00:00Z,25.2140,-80.4320,1.5,30.92,1111122 
ENP,ioos.station.NOAA.NDBC:LBSF1:1,2015-01-09T08:00:00Z,25.2140,-80.4320,1.5,30.92,1111122 
ENP,ioos.station.NOAA.NDBC:LBSF1:1,2015-01-09T09:00:00Z,25.2140,-80.4320,1.5,30.92,1111122 
ENP,ioos.station.NOAA.NDBC:LBSF1:1,2015-01-09T10:00:00Z,25.2140,-80.4320,1.5,30.93,1111122 
ENP,ioos.station.NOAA.NDBC:LBSF1:1,2015-01-09T11:00:00Z,25.2140,-80.4320,1.5,30.92,1111122 
ENP,ioos.station.NOAA.NDBC:LBSF1:1,2015-01-09T12:00:00Z,25.2140,-80.4320,1.5,30.93,1111122 
ENP,ioos.station.NOAA.NDBC:LBSF1:1,2015-01-09T13:00:00Z,25.2140,-80.4320,1.5,30.93,1111122 
ENP,ioos.station.NOAA.NDBC:LBSF1:1,2015-01-09T14:00:00Z,25.2140,-80.4320,1.5,30.92,1111122 
ENP,ioos.station.NOAA.NDBC:LBSF1:1,2015-01-10T12:00:00Z,25.2140,-80.4320,1.5,31.18,1111122 
ENP,ioos.station.NOAA.NDBC:LBSF1:1,2015-01-10T13:00:00Z,25.2140,-80.4320,1.5,31.18,1111122 
ENP,ioos.station.NOAA.NDBC:LBSF1:1,2015-01-10T14:00:00Z,25.2140,-80.4320,1.5,31.2,1111122 
ENP,ioos.station.NOAA.NDBC:LBSF1:1,2015-01-10T15:00:00Z,25.2140,-80.4320,1.5,31.19,1111122 
ENP,ioos.station.NOAA.NDBC:LBSF1:1,2015-01-10T16:00:00Z,25.2140,-80.4320,1.5,31.21,1111122 
ENP,ioos.station.NOAA.NDBC:LBSF1:1,2015-01-10T17:00:00Z,25.2140,-80.4320,1.5,31.21,1111122 
ENP,ioos.station.NOAA.NDBC:LBSF1:1,2015-01-10T18:00:00Z,25.2140,-80.4320,1.5,31.29,1111122 
ENP,ioos.station.NOAA.NDBC:LBSF1:1,2015-01-10T19:00:00Z,25.2140,-80.4320,1.5,31.23,1111122 
ENP,ioos.station.NOAA.NDBC:LBSF1:1,2015-01-10T20:00:00Z,25.2140,-80.4320,1.5,31.26,1111122 
ENP,ioos.station.NOAA.NDBC:LBSF1:1,2015-01-10T21:00:00Z,25.2140,-80.4320,1.5,31.27,1111122 
ENP,ioos.station.NOAA.NDBC:LBSF1:1,2015-01-10T22:00:00Z,25.2140,-80.4320,1.5,31.27,1111122 
ENP,ioos.station.NOAA.NDBC:LBSF1:1,2015-01-10T23:00:00Z,25.2140,-80.4320,1.5,31.27,1111122 
ENP,ioos.station.NOAA.NDBC:LBSF1:1,2015-01-11T00:00:00Z,25.2140,-80.4320,1.5,31.16,1111122 
ENP,ioos.station.NOAA.NDBC:LBSF1:1,2015-01-11T01:00:00Z,25.2140,-80.4320,1.5,31.08,1111122 
ENP,ioos.station.NOAA.NDBC:LBSF1:1,2015-01-11T02:00:00Z,25.2140,-80.4320,1.5,31.0,1111122 
ENP,ioos.station.NOAA.NDBC:LBSF1:1,2015-01-11T03:00:00Z,25.2140,-80.4320,1.5,30.97,1111122 
ENP,ioos.station.NOAA.NDBC:LBSF1:1,2015-01-11T04:00:00Z,25.2140,-80.4320,1.5,30.97,1111122 
ENP,ioos.station.NOAA.NDBC:LBSF1:1,2015-01-11T05:00:00Z,25.2140,-80.4320,1.5,30.97,1111122 
ENP,ioos.station.NOAA.NDBC:LBSF1:1,2015-01-11T06:00:00Z,25.2140,-80.4320,1.5,30.99,1111122 
ENP,ioos.station.NOAA.NDBC:LBSF1:1,2015-01-11T07:00:00Z,25.2140,-80.4320,1.5,30.99,1111122 
ENP,ioos.station.NOAA.NDBC:LBSF1:1,2015-01-11T08:00:00Z,25.2140,-80.4320,1.5,30.99,1111122 
ENP,ioos.station.NOAA.NDBC:LBSF1:1,2015-01-11T09:00:00Z,25.2140,-80.4320,1.5,31.0,1111122 
ENP,ioos.station.NOAA.NDBC:LBSF1:1,2015-01-11T10:00:00Z,25.2140,-80.4320,1.5,31.0,1111122 
ENP,ioos.station.NOAA.NDBC:LBSF1:1,2015-01-11T11:00:00Z,25.2140,-80.4320,1.5,31.0,1111122 
ENP,ioos.station.NOAA.NDBC:LBSF1:1,2015-01-11T12:00:00Z,25.2140,-80.4320,1.5,31.02,1111122 
ENP,ioos.station.NOAA.NDBC:LBSF1:1,2015-01-11T13:00:00Z,25.2140,-80.4320,1.5,31.01,1111122 
ENP,ioos.station.NOAA.NDBC:LBSF1:1,2015-01-11T14:00:00Z,25.2140,-80.4320,1.5,31.01,1111122 
ENP,ioos.station.NOAA.NDBC:LBSF1:1,2015-01-11T15:00:00Z,25.2140,-80.4320,1.5,31.02,1111122 
ENP,ioos.station.NOAA.NDBC:LBSF1:1,2015-01-11T16:00:00Z,25.2140,-80.4320,1.5,31.04,1111122 
ENP,ioos.station.NOAA.NDBC:LBSF1:1,2015-01-11T17:00:00Z,25.2140,-80.4320,1.5,31.11,1111122 
ENP,ioos.station.NOAA.NDBC:LBSF1:1,2015-01-11T18:00:00Z,25.2140,-80.4320,1.5,31.07,1111122 
ENP,ioos.station.NOAA.NDBC:LBSF1:1,2015-01-11T19:00:00Z,25.2140,-80.4320,1.5,31.07,1111122 
ENP,ioos.station.NOAA.NDBC:LBSF1:1,2015-01-11T20:00:00Z,25.2140,-80.4320,1.5,31.08,1111122 
ENP,ioos.station.NOAA.NDBC:LBSF1:1,2015-01-11T21:00:00Z,25.2140,-80.4320,1.5,31.06,1111122 
ENP,ioos.station.NOAA.NDBC:LBSF1:1,2015-01-11T22:00:00Z,25.2140,-80.4320,1.5,30.99,1111122 
ENP,ioos.station.NOAA.NDBC:LBSF1:1,2015-01-11T23:00:00Z,25.2140,-80.4320,1.5,30.98,1111122 
ENP,ioos.station.NOAA.NDBC:LBSF1:1,2015-01-12T00:00:00Z,25.2140,-80.4320,1.5,31.0,1111122 
ENP,ioos.station.NOAA.NDBC:LBSF1:1,2015-01-12T01:00:00Z,25.2140,-80.4320,1.5,30.99,1111122 
ENP,ioos.station.NOAA.NDBC:LBSF1:1,2015-01-12T02:00:00Z,25.2140,-80.4320,1.5,30.97,1111122 
ENP,ioos.station.NOAA.NDBC:LBSF1:1,2015-01-12T03:00:00Z,25.2140,-80.4320,1.5,30.95,1111122 
ENP,ioos.station.NOAA.NDBC:LBSF1:1,2015-01-12T04:00:00Z,25.2140,-80.4320,1.5,30.88,1111122 
ENP,ioos.station.NOAA.NDBC:LBSF1:1,2015-01-12T05:00:00Z,25.2140,-80.4320,1.5,30.87,1111122 
ENP,ioos.station.NOAA.NDBC:LBSF1:1,2015-01-12T06:00:00Z,25.2140,-80.4320,1.5,30.87,1111122 
ENP,ioos.station.NOAA.NDBC:LBSF1:1,2015-01-12T07:00:00Z,25.2140,-80.4320,1.5,30.86,1111122 
ENP,ioos.station.NOAA.NDBC:LBSF1:1,2015-01-12T08:00:00Z,25.2140,-80.4320,1.5,30.87,1111122 
ENP,ioos.station.NOAA.NDBC:LBSF1:1,2015-01-12T09:00:00Z,25.2140,-80.4320,1.5,30.87,1111122 
ENP,ioos.station.NOAA.NDBC:LBSF1:1,2015-01-12T10:00:00Z,25.2140,-80.4320,1.5,30.88,1111122 
ENP,ioos.station.NOAA.NDBC:LBSF1:1,2015-01-12T11:00:00Z,25.2140,-80.4320,1.5,30.89,1111122 
ENP,ioos.station.NOAA.NDBC:LBSF1:1,2015-01-12T12:00:00Z,25.2140,-80.4320,1.5,30.89,1111122 
ENP,ioos.station.NOAA.NDBC:LBSF1:1,2015-01-12T13:00:00Z,25.2140,-80.4320,1.5,30.89,1111122 
ENP,ioos.station.NOAA.NDBC:LBSF1:1,2015-01-12T14:00:00Z,25.2140,-80.4320,1.5,30.89,1111122 
ENP,ioos.station.NOAA.NDBC:LBSF1:1,2015-01-12T15:00:00Z,25.2140,-80.4320,1.5,30.89,1111122 
ENP,ioos.station.NOAA.NDBC:LBSF1:1,2015-01-12T16:00:00Z,25.2140,-80.4320,1.5,30.9,1111122 
ENP,ioos.station.NOAA.NDBC:LBSF1:1,2015-01-12T17:00:00Z,25.2140,-80.4320,1.5,30.91,1111122 
ENP,ioos.station.NOAA.NDBC:LBSF1:1,2015-01-12T18:00:00Z,25.2140,-80.4320,1.5,31.0,1111122 
ENP,ioos.station.NOAA.NDBC:LBSF1:1,2015-01-12T19:00:00Z,25.2140,-80.4320,1.5,31.02,1111122 
ENP,ioos.station.NOAA.NDBC:LBSF1:1,2015-01-12T20:00:00Z,25.2140,-80.4320,1.5,30.93,1111122 
ENP,ioos.station.NOAA.NDBC:LBSF1:1,2015-01-12T21:00:00Z,25.2140,-80.4320,1.5,30.93,1111122 
ENP,ioos.station.NOAA.NDBC:LBSF1:1,2015-01-12T22:00:00Z,25.2140,-80.4320,1.5,30.99,1111122 
ENP,ioos.station.NOAA.NDBC:LBSF1:1,2015-01-12T23:00:00Z,25.2140,-80.4320,1.5,31.02,1111122 
ENP,ioos.station.NOAA.NDBC:LBSF1:1,2015-01-13T00:00:00Z,25.2140,-80.4320,1.5,31.05,1111122 
ENP,ioos.station.NOAA.NDBC:LBSF1:1,2015-01-13T01:00:00Z,25.2140,-80.4320,1.5,31.08,1111122 
ENP,ioos.station.NOAA.NDBC:LBSF1:1,2015-01-13T02:00:00Z,25.2140,-80.4320,1.5,31.1,1111122 
ENP,ioos.station.NOAA.NDBC:LBSF1:1,2015-01-13T03:00:00Z,25.2140,-80.4320,1.5,31.1,1111122 
ENP,ioos.station.NOAA.NDBC:LBSF1:1,2015-01-13T04:00:00Z,25.2140,-80.4320,1.5,31.11,1111122 
ENP,ioos.station.NOAA.NDBC:LBSF1:1,2015-01-13T05:00:00Z,25.2140,-80.4320,1.5,31.13,1111122 
ENP,ioos.station.NOAA.NDBC:LBSF1:1,2015-01-13T06:00:00Z,25.2140,-80.4320,1.5,31.13,1111122 
ENP,ioos.station.NOAA.NDBC:LBSF1:1,2015-01-13T07:00:00Z,25.2140,-80.4320,1.5,31.14,1111122 
ENP,ioos.station.NOAA.NDBC:LBSF1:1,2015-01-13T08:00:00Z,25.2140,-80.4320,1.5,31.13,1111122 
ENP,ioos.station.NOAA.NDBC:LBSF1:1,2015-01-13T09:00:00Z,25.2140,-80.4320,1.5,30.02,1111122 
ENP,ioos.station.NOAA.NDBC:LBSF1:1,2015-01-13T10:00:00Z,25.2140,-80.4320,1.5,29.72,1111122 
ENP,ioos.station.NOAA.NDBC:LBSF1:1,2015-01-13T11:00:00Z,25.2140,-80.4320,1.5,29.75,1111122 
ENP,ioos.station.NOAA.NDBC:LBSF1:1,2015-01-13T12:00:00Z,25.2140,-80.4320,1.5,29.75,1111122 
ENP,ioos.station.NOAA.NDBC:LBSF1:1,2015-01-13T13:00:00Z,25.2140,-80.4320,1.5,29.79,1111122 
ENP,ioos.station.NOAA.NDBC:LBSF1:1,2015-01-13T14:00:00Z,25.2140,-80.4320,1.5,29.83,1111122 
ENP,ioos.station.NOAA.NDBC:LBSF1:1,2015-01-13T15:00:00Z,25.2140,-80.4320,1.5,29.91,1111122 
ENP,ioos.station.NOAA.NDBC:LBSF1:1,2015-01-13T16:00:00Z,25.2140,-80.4320,1.5,30.0,1111122 
ENP,ioos.station.NOAA.NDBC:LBSF1:1,2015-01-13T17:00:00Z,25.2140,-80.4320,1.5,30.09,1111122 
ENP,ioos.station.NOAA.NDBC:LBSF1:1,2015-01-13T18:00:00Z,25.2140,-80.4320,1.5,30.17,1111122 
ENP,ioos.station.NOAA.NDBC:LBSF1:1,2015-01-13T19:00:00Z,25.2140,-80.4320,1.5,30.26,1111122 
ENP,ioos.station.NOAA.NDBC:LBSF1:1,2015-01-13T20:00:00Z,25.2140,-80.4320,1.5,30.28,1111122 
ENP,ioos.station.NOAA.NDBC:LBSF1:1,2015-01-13T21:00:00Z,25.2140,-80.4320,1.5,30.32,1111122 
ENP,ioos.station.NOAA.NDBC:LBSF1:1,2015-01-13T22:00:00Z,25.2140,-80.4320,1.5,30.31,1111122 
ENP,ioos.station.NOAA.NDBC:LBSF1:1,2015-01-13T23:00:00Z,25.2140,-80.4320,1.5,30.32,1111122 
ENP,ioos.station.NOAA.NDBC:LBSF1:1,2015-01-14T00:00:00Z,25.2140,-80.4320,1.5,30.31,1111122 
ENP,ioos.station.NOAA.NDBC:LBSF1:1,2015-01-14T01:00:00Z,25.2140,-80.4320,1.5,30.37,1111122 
ENP,ioos.station.NOAA.NDBC:LBSF1:1,2015-01-14T02:00:00Z,25.2140,-80.4320,1.5,30.42,1111122 
ENP,ioos.station.NOAA.NDBC:LBSF1:1,2015-01-14T03:00:00Z,25.2140,-80.4320,1.5,30.44,1111122 
ENP,ioos.station.NOAA.NDBC:LBSF1:1,2015-01-14T04:00:00Z,25.2140,-80.4320,1.5,30.44,1111122 
ENP,ioos.station.NOAA.NDBC:LBSF1:1,2015-01-14T05:00:00Z,25.2140,-80.4320,1.5,30.45,1111122 
ENP,ioos.station.NOAA.NDBC:LBSF1:1,2015-01-14T06:00:00Z,25.2140,-80.4320,1.5,30.47,1111122 
ENP,ioos.station.NOAA.NDBC:LBSF1:1,2015-01-14T07:00:00Z,25.2140,-80.4320,1.5,30.44,1111122 
ENP,ioos.station.NOAA.NDBC:LBSF1:1,2015-01-14T08:00:00Z,25.2140,-80.4320,1.5,30.4,1111122 
ENP,ioos.station.NOAA.NDBC:LBSF1:1,2015-01-14T09:00:00Z,25.2140,-80.4320,1.5,30.35,1111122 
ENP,ioos.station.NOAA.NDBC:LBSF1:1,2015-01-14T10:00:00Z,25.2140,-80.4320,1.5,30.39,1111122 
ENP,ioos.station.NOAA.NDBC:LBSF1:1,2015-01-14T11:00:00Z,25.2140,-80.4320,1.5,30.39,1111122 
ENP,ioos.station.NOAA.NDBC:LBSF1:1,2015-01-14T12:00:00Z,25.2140,-80.4320,1.5,30.35,1111122 
ENP,ioos.station.NOAA.NDBC:LBSF1:1,2015-01-14T13:00:00Z,25.2140,-80.4320,1.5,30.37,1111122 
ENP,ioos.station.NOAA.NDBC:LBSF1:1,2015-01-14T14:00:00Z,25.2140,-80.4320,1.5,30.35,1111122 
ENP,ioos.station.NOAA.NDBC:LBSF1:1,2015-01-14T15:00:00Z,25.2140,-80.4320,1.5,30.45,1111122 
ENP,ioos.station.NOAA.NDBC:LBSF1:1,2015-01-14T16:00:00Z,25.2140,-80.4320,1.5,30.42,1111122 
ENP,ioos.station.NOAA.NDBC:LBSF1:1,2015-01-14T17:00:00Z,25.2140,-80.4320,1.5,30.39,1111122 
ENP,ioos.station.NOAA.NDBC:LBSF1:1,2015-01-14T18:00:00Z,25.2140,-80.4320,1.5,30.41,1111122 
ENP,ioos.station.NOAA.NDBC:LBSF1:1,2015-01-14T19:00:00Z,25.2140,-80.4320,1.5,30.42,1111122 
ENP,ioos.station.NOAA.NDBC:LBSF1:1,2015-01-14T20:00:00Z,25.2140,-80.4320,1.5,30.42,1111122 
ENP,ioos.station.NOAA.NDBC:LBSF1:1,2015-01-14T21:00:00Z,25.2140,-80.4320,1.5,30.44,1111122 
ENP,ioos.station.NOAA.NDBC:LBSF1:1,2015-01-14T22:00:00Z,25.2140,-80.4320,1.5,30.5,1111122 
ENP,ioos.station.NOAA.NDBC:LBSF1:1,2015-01-14T23:00:00Z,25.2140,-80.4320,1.5,30.53,1111122 
ENP,ioos.station.NOAA.NDBC:LBSF1:1,2015-01-15T00:00:00Z,25.2140,-80.4320,1.5,30.56,1111122 
ENP,ioos.station.NOAA.NDBC:LBSF1:1,2015-01-15T01:00:00Z,25.2140,-80.4320,1.5,30.6,1111122 
ENP,ioos.station.NOAA.NDBC:LBSF1:1,2015-01-15T02:00:00Z,25.2140,-80.4320,1.5,30.59,1111122 
ENP,ioos.station.NOAA.NDBC:LBSF1:1,2015-01-15T03:00:00Z,25.2140,-80.4320,1.5,30.56,1111122 
ENP,ioos.station.NOAA.NDBC:LBSF1:1,2015-01-15T04:00:00Z,25.2140,-80.4320,1.5,30.52,1111122 
ENP,ioos.station.NOAA.NDBC:LBSF1:1,2015-01-15T05:00:00Z,25.2140,-80.4320,1.5,30.65,1111122 
ENP,ioos.station.NOAA.NDBC:LBSF1:1,2015-01-15T06:00:00Z,25.2140,-80.4320,1.5,30.42,1111122 
ENP,ioos.station.NOAA.NDBC:LBSF1:1,2015-01-15T07:00:00Z,25.2140,-80.4320,1.5,30.4,1111122 
ENP,ioos.station.NOAA.NDBC:LBSF1:1,2015-01-15T08:00:00Z,25.2140,-80.4320,1.5,30.36,1111122 
ENP,ioos.station.NOAA.NDBC:LBSF1:1,2015-01-15T09:00:00Z,25.2140,-80.4320,1.5,30.35,1111122 
ENP,ioos.station.NOAA.NDBC:LBSF1:1,2015-01-15T10:00:00Z,25.2140,-80.4320,1.5,30.39,1111122 
ENP,ioos.station.NOAA.NDBC:LBSF1:1,2015-01-15T11:00:00Z,25.2140,-80.4320,1.5,30.4,1111122 
ENP,ioos.station.NOAA.NDBC:LBSF1:1,2015-01-15T12:00:00Z,25.2140,-80.4320,1.5,30.41,1111122 
ENP,ioos.station.NOAA.NDBC:LBSF1:1,2015-01-15T13:00:00Z,25.2140,-80.4320,1.5,30.42,1111122 
ENP,ioos.station.NOAA.NDBC:LBSF1:1,2015-01-15T14:00:00Z,25.2140,-80.4320,1.5,30.41,1111122 
ENP,ioos.station.NOAA.NDBC:LBSF1:1,2015-01-15T15:00:00Z,25.2140,-80.4320,1.5,30.38,1111122 
ENP,ioos.station.NOAA.NDBC:LBSF1:1,2015-01-15T16:00:00Z,25.2140,-80.4320,1.5,30.36,1111122 
ENP,ioos.station.NOAA.NDBC:LBSF1:1,2015-01-15T17:00:00Z,25.2140,-80.4320,1.5,30.39,1111122 
ENP,ioos.station.NOAA.NDBC:LBSF1:1,2015-01-15T18:00:00Z,25.2140,-80.4320,1.5,30.39,1111122 
ENP,ioos.station.NOAA.NDBC:LBSF1:1,2015-01-15T19:00:00Z,25.2140,-80.4320,1.5,30.37,1111122 
ENP,ioos.station.NOAA.NDBC:LBSF1:1,2015-01-15T20:00:00Z,25.2140,-80.4320,1.5,31.17,1111122 
ENP,ioos.station.NOAA.NDBC:LBSF1:1,2015-01-15T21:00:00Z,25.2140,-80.4320,1.5,31.23,1111122 
ENP,ioos.station.NOAA.NDBC:LBSF1:1,2015-01-15T22:00:00Z,25.2140,-80.4320,1.5,31.29,1111122 
ENP,ioos.station.NOAA.NDBC:LBSF1:1,2015-01-15T23:00:00Z,25.2140,-80.4320,1.5,31.28,1111122 
ENP,ioos.station.NOAA.NDBC:LBSF1:1,2015-01-16T00:00:00Z,25.2140,-80.4320,1.5,31.26,1111122 
ENP,ioos.station.NOAA.NDBC:LBSF1:1,2015-01-16T01:00:00Z,25.2140,-80.4320,1.5,31.23,1111122 
ENP,ioos.station.NOAA.NDBC:LBSF1:1,2015-01-16T02:00:00Z,25.2140,-80.4320,1.5,31.23,1111122 
ENP,ioos.station.NOAA.NDBC:LBSF1:1,2015-01-16T04:00:00Z,25.2140,-80.4320,1.5,31.23,1111122 
ENP,ioos.station.NOAA.NDBC:LBSF1:1,2015-01-16T05:00:00Z,25.2140,-80.4320,1.5,31.23,1111122 
ENP,ioos.station.NOAA.NDBC:LBSF1:1,2015-01-16T06:00:00Z,25.2140,-80.4320,1.5,31.28,1111122 
ENP,ioos.station.NOAA.NDBC:LBSF1:1,2015-01-16T07:00:00Z,25.2140,-80.4320,1.5,31.34,1111122 
ENP,ioos.station.NOAA.NDBC:LBSF1:1,2015-01-16T08:00:00Z,25.2140,-80.4320,1.5,31.31,1111122 
ENP,ioos.station.NOAA.NDBC:LBSF1:1,2015-01-16T09:00:00Z,25.2140,-80.4320,1.5,31.36,1111122 
ENP,ioos.station.NOAA.NDBC:LBSF1:1,2015-01-16T10:00:00Z,25.2140,-80.4320,1.5,31.34,1111122 
ENP,ioos.station.NOAA.NDBC:LBSF1:1,2015-01-16T11:00:00Z,25.2140,-80.4320,1.5,31.35,1111122 
ENP,ioos.station.NOAA.NDBC:LBSF1:1,2015-01-16T12:00:00Z,25.2140,-80.4320,1.5,31.32,1111122 
ENP,ioos.station.NOAA.NDBC:LBSF1:1,2015-01-16T13:00:00Z,25.2140,-80.4320,1.5,31.34,1111122 
ENP,ioos.station.NOAA.NDBC:LBSF1:1,2015-01-16T14:00:00Z,25.2140,-80.4320,1.5,31.35,1111122 
ENP,ioos.station.NOAA.NDBC:LBSF1:1,2015-01-16T15:00:00Z,25.2140,-80.4320,1.5,31.34,1111122 
ENP,ioos.station.NOAA.NDBC:LBSF1:1,2015-01-16T16:00:00Z,25.2140,-80.4320,1.5,31.31,1111122 
ENP,ioos.station.NOAA.NDBC:LBSF1:1,2015-01-16T17:00:00Z,25.2140,-80.4320,1.5,31.28,1111122 
ENP,ioos.station.NOAA.NDBC:LBSF1:1,2015-01-16T18:00:00Z,25.2140,-80.4320,1.5,31.26,1111122 
ENP,ioos.station.NOAA.NDBC:LBSF1:1,2015-01-16T19:00:00Z,25.2140,-80.4320,1.5,31.29,1111122 
ENP,ioos.station.NOAA.NDBC:LBSF1:1,2015-01-16T20:00:00Z,25.2140,-80.4320,1.5,31.54,1111122 
ENP,ioos.station.NOAA.NDBC:LBSF1:1,2015-01-16T21:00:00Z,25.2140,-80.4320,1.5,31.53,1111122 
ENP,ioos.station.NOAA.NDBC:LBSF1:1,2015-01-16T22:00:00Z,25.2140,-80.4320,1.5,31.47,1111122 
ENP,ioos.station.NOAA.NDBC:LBSF1:1,2015-01-16T23:00:00Z,25.2140,-80.4320,1.5,31.34,1111122 
ENP,ioos.station.NOAA.NDBC:LBSF1:1,2015-01-17T00:00:00Z,25.2140,-80.4320,1.5,31.4,1111122 